weather.gov     
National Weather Service

Terminal Aerodrome Forecast
NWS Homepage
This page is being discontinued on March 12, 2014.
The same data is available at this site. Please update your bookmarks.
Thank you, and we apologize for the inconvenience.
Please send an email to SR-SRH.Webmaster@noaa.gov with any concerns.


Current Version
Previous Version:    01  02  03  04  05  06  07  08  09  10  11  12  13  14  15  16  17  18  19  20  21  22  23  24  25  26  27  28  29  30  
   31  32  33  
[Printable]
528
FTUS44 KOUN 011742
TAFLAW
TAF
KLAW 011742Z 0118/0218 19014G19KT P6SM FEW250
     FM020000 18012KT P6SM BKN250 PROB30 0203/0209 4SM -TSRA
      OVC050CB
     FM020900 18015KT P6SM OVC120 PROB30 0209/0215 5SM -TSRA
      OVC050CB=


528
FTUS44 KOUN 011742
TAFLAW
TAF
KLAW 011742Z 0118/0218 19014G19KT P6SM FEW250
     FM020000 18012KT P6SM BKN250 PROB30 0203/0209 4SM -TSRA
      OVC050CB
     FM020900 18015KT P6SM OVC120 PROB30 0209/0215 5SM -TSRA
      OVC050CB=




U.S. Dept. of Commerce
NOAA National Weather Service
1325 East West Highway
Silver Spring, MD 20910
E-mail: w-nws.webmaster@noaa.gov
Page last modified: May 16, 2007
NATIONAL WEATHER SERVICE: for Safety, for Work, for Fun - FOR LIFE